TERMINUS DAM (TRM)

Elevation: 752' · KAWEAH R basin · Operator: US Army Corps of Engineers

Provisional data, subject to change.
Query executed Monday at 15:26:24   clock

Select a sensor type for a plot of data.
Note: Reservoir Flows are daily averages.

Earlier

Date RES ELE    STORAGE    RES CHG    TOC STO    ABV TOC    OUTFLOW    INFLOW    FNF    PPT INC    TEMP MN    TEMP MX    WINDLEN    EVP PAN   
 FEET   AF   AF   AF   AF   CFS   CFS   CFS   INCHES   DEG F   DEG F   MILES   INCHES  
06/29/2014 631.15 46882 -1232 185300 -138418 673 144 144 0.00 21 38 90 0.36
06/30/2014 630.13 45766 -1116 185300 -139534 596 123 123 0.00 24 42 97 0.38
07/01/2014 629.24 44805 -961 185300 -140495 522 125 125 0.00 26 41 104 0.39
07/02/2014 628.51 44026 -779 185300 -141274 441 142 142 0.00 23 40 100 0.38
07/03/2014 627.80 43276 -750 185300 -142024 409 76 76 0.00 22 39 90 0.36
07/04/2014 627.08 42523 -753 185300 -142777 409 41 41 0.00 26 42 103 0.40
07/05/2014 626.37 41788 -735 185300 -143512 407 51 51 0.00 24 39 98 0.38
07/06/2014 625.62 41021 -767 185300 -144279 408 33 33 0.00 22 38 71 0.26
07/07/2014 624.89 40281 -740 185300 -145019 408 43 43 0.00 26 38 78 0.25
07/08/2014 624.14 39531 -750 185300 -145769 408 38 38 0.00 25 42 109 0.40
07/09/2014 623.37 38769 -762 185300 -146531 408 37 37 0.00 22 40 95 0.37
07/10/2014 622.59 38006 -763 185300 -147294 409 35 35 0.00 20 38 75 0.33
07/11/2014 621.80 37243 -763 185300 -148057 408 35 35 0.00 20 36 78 0.32
07/12/2014 621.01 36490 -753 185300 -- 409 39 39 0.00 20 36 92 0.33
07/13/2014 620.20 35728 -762 185300 -149572 410 35 35 0.00 23 40 89 0.35
07/14/2014 619.49 35068 -660 185300 -150232 366 87 87 0.00 28 39 95 0.27
07/15/2014 618.88 34507 -561 185300 -150793 -- -- 91 -- -- -- -- --
07/16/2014 618.26 33943 -564 185220 -151277 305 31 31 0.00 24 36 86 0.33
07/17/2014 617.60 33349 -594 183800 -150451 311 15 15 0.00 20 35 98 0.32
07/18/2014 616.94 32762 -587 182380 -149618 317 25 25 0.00 20 34 88 0.31
07/19/2014 616.26 32163 -599 180960 -148797 315 24 24 0.00 22 36 85 0.31
07/20/2014 615.58 31573 -590 179480 -147907 315 27 27 0.00 25 36 104 0.28
07/21/2014 614.89 30980 -593 178010 -147030 313 24 24 0.00 21 36 92 0.31
07/22/2014 614.22 30412 -568 176540 -146128 313 36 36 0.00 22 37 101 0.34
07/23/2014 613.53 29834 -578 175070 -145236 311 31 31 0.00 19 33 94 0.31
07/24/2014 612.89 29305 -529 171200 -141895 287 53 53 0.00 20 36 84 0.32
07/25/2014 612.26 28790 -515 167340 -138550 269 36 36 0.00 24 39 105 0.37
07/26/2014 611.63 28281 -509 163470 -135189 271 22 22 0.00 25 40 95 0.35
07/27/2014 610.99 27770 -511 159610 -131840 271 23 23 0.00 25 40 85 0.32
07/28/2014 -- -- -- -- -- -- -- -- -- -- -- -- --

Later | Latest

Warning! This data is preliminary and subject to revision.

Download Data Now Download Data Now | Show TRM Map | Plot TRM Data | 1 Month TRM Data | Real-Time TRM Data | TRM Info